CW3138 Weather Reports


time (UTC)temp
C
wind
direction
speed
KPH
gust
KPH
rain 1hr
cm
rain 24hr
cm
rain mn
cm
humidity
%
barometer
mb
20260502183026 12 271 3.2 22.5 0.00 0.00 0.00 48 1011.0
20260502181518 11 234 9.7 22.5 0.00 0.00 0.00 48 1011.4
20260502163008 10 191 6.4 20.9 0.00 0.00 0.00 52 1012.0
20260502161506 11 277 4.8 16.1 0.00 0.00 0.00 53 1012.0
20260502151605 10 245 11.3 24.1 0.00 0.00 0.00 53 1012.1
20260502123030 2 140 0.0 0.0 0.00 0.00 0.00 98 1012.0
20260502121522 1 243 0.0 0.0 0.00 0.00 0.00 98 1012.3
20260502114521 1 243 1.6 4.8 0.00 0.00 0.00 98 1012.1
20260502113021 1 243 0.0 0.0 0.00 0.00 0.00 98 1012.0
20260502111521 1 243 0.0 0.0 0.00 0.00 0.00 98 1012.0
20260502110019 1 243 0.0 0.0 0.00 0.00 0.00 98 1012.0
20260502104518 1 243 0.0 4.8 0.00 0.00 0.00 97 1011.9
20260502103016 1 87 0.0 0.0 0.00 0.00 0.00 97 1012.1
20260502101526 1 87 0.0 0.0 0.00 0.00 0.00 97 1012.1
20260502091513 1 87 0.0 0.0 0.00 0.00 0.00 97 1012.0
20260502070119 2 247 0.0 0.0 0.00 0.00 0.00 96 1011.9
20260502064558 2 247 0.0 0.0 0.00 0.00 0.00 96 1012.0
20260502063057 2 247 0.0 0.0 0.00 0.00 0.00 96 1012.2
20260502061557 2 247 0.0 0.0 0.00 0.00 0.00 96 1012.5
20260502060055 2 247 0.0 0.0 0.00 0.00 0.00 95 1012.5
20260502054553 2 247 0.0 0.0 0.00 0.00 0.00 95 1012.5
20260502053105 2 247 0.0 0.0 0.00 0.00 0.00 95 1012.6
20260502051603 2 247 0.0 0.0 0.00 0.00 0.00 94 1012.5
20260502050047 2 247 0.0 0.0 0.00 0.00 0.00 94 1012.5
20260502044547 3 247 0.0 0.0 0.00 0.00 0.00 94 1012.6
20260502043044 3 247 0.0 0.0 0.00 0.00 0.00 94 1012.8
20260502041602 3 247 0.0 0.0 0.00 0.00 0.00 93 1012.8
20260502040044 3 247 0.0 0.0 0.00 0.00 0.00 93 1012.7
20260502034542 3 247 0.0 0.0 0.00 0.00 0.00 92 1012.5
20260502033050 4 247 0.0 0.0 0.00 0.00 0.00 91 1012.5
20260502031539 5 247 0.0 0.0 0.00 0.00 0.00 90 1012.5
20260502030039 5 247 0.0 0.0 0.00 0.00 0.00 88 1012.7
20260502024538 5 247 0.0 0.0 0.00 0.00 0.00 87 1012.6
20260502023037 6 247 0.0 0.0 0.00 0.00 0.00 85 1012.4
20260502021536 6 247 0.0 0.0 0.00 0.00 0.00 83 1011.9
20260502020037 7 247 0.0 0.0 0.00 0.00 0.00 82 1011.8
20260502014535 7 247 0.0 0.0 0.00 0.00 0.00 79 1011.6
20260502013034 8 247 0.0 0.0 0.00 0.00 0.00 76 1011.4
20260502011532 8 248 0.0 1.6 0.00 0.00 0.00 72 1011.3
20260502010031 10 178 0.0 19.3 0.00 0.00 0.00 69 1010.9
20260502004531 10 252 8.0 19.3 0.00 0.00 0.00 67 1010.4
20260502003032 11 243 9.7 22.5 0.00 0.00 0.00 66 1010.3
20260502001530 11 266 9.7 22.5 0.00 0.00 0.00 67 1010.2
20260502000029 11 261 12.9 27.4 0.00 0.00 0.00 66 1009.7
20260501234529 11 247 8.0 20.9 0.00 0.00 0.00 69 1009.2
20260501233028 12 212 8.0 17.7 0.00 0.00 0.00 71 1008.8
20260501231541 12 248 4.8 19.3 0.00 0.00 0.00 73 1008.7
20260501230027 12 272 6.4 14.5 0.00 0.00 0.00 74 1008.7
20260501224527 11 216 3.2 8.0 0.00 0.00 0.00 74 1008.7
20260501223042 11 244 3.2 8.0 0.00 0.00 0.00 74 1008.7
20260501221527 11 247 0.0 8.0 0.00 0.00 0.00 74 1008.7
20260501220026 11 257 4.8 11.3 0.00 0.00 0.00 75 1008.7
20260501214526 11 229 3.2 17.7 0.00 0.00 0.00 74 1008.8
20260501213025 11 202 6.4 11.3 0.00 0.00 0.00 71 1008.6
20260501211524 12 263 8.0 11.3 0.00 0.00 0.00 71 1008.4
20260501210024 12 184 3.2 16.1 0.00 0.03 0.00 71 1008.2
20260501204526 12 263 9.7 20.9 0.00 0.03 0.00 72 1008.4
20260501203023 12 260 8.0 29.0 0.00 0.03 0.00 74 1008.5
20260501201522 13 252 17.7 33.8 0.00 0.03 0.00 73 1008.1
20260501200022 13 240 8.0 16.1 0.00 0.03 0.00 77 1007.9
20260501194521 12 263 4.8 14.5 0.00 0.03 0.00 78 1008.0
20260501193021 13 254 4.8 24.1 0.00 0.03 0.00 74 1007.7
20260501191520 14 253 14.5 24.1 0.00 0.03 0.00 65 1008.1
20260501190019 16 232 3.2 9.7 0.00 0.03 0.00 56 1007.6
20260501184518 16 191 0.0 16.1 0.00 0.03 0.00 53 1007.1